East Milton, MA

7:57 PM EDT on May 20, 2018 (GMT -0400)
East Milton

Weather History for KMQE - January, 2014

Change the Weather History Date:

Friday, January 10, 2014

  Actual Average (KOWD) Record (KOWD)
Temperature  
Mean Temperature 27 °F -  
Max Temperature 37 °F 33 °F 61 °F (2016)
Min Temperature 18 °F 17 °F -2 °F (2004)
Degree Days  
Heating Degree Days 38    
Moisture  
Dew Point 24 °F    
Average Humidity 86    
Maximum Humidity 100    
Minimum Humidity 55    
Precipitation  
Precipitation 0.05 in - - ()
Sea Level Pressure  
Sea Level Pressure 30.46 in    
Wind  
Wind Speed 11 mph (SSW)    
Max Wind Speed 14 mph    
Max Gust Speed -    
Averages and records for this station are not official NWS values.
T = Trace of Precipitation, MM = Missing Value Source: NWS Daily Summary

Daily Weather History Graph

Daily Weather History Graph

Search for Another Location

Airport or City:

Astronomy

Jan. 10, 2014 Rise Set
Actual Time 7:12 AM EST 4:31 PM EST
Civil Twilight 6:41 AM EST 5:03 PM EST
Nautical Twilight 6:06 AM EST 5:38 PM EST
Astronomical Twilight 5:32 AM EST 6:11 PM EST
Moon 12:35 PM EST (1/10) 2:15 AM EST (1/10)
Length of Visible Light 10h 22m
Length of Day
9h 19m
Waxing Gibbous, 75% of the Moon is Illuminated
Jan 10
Waxing Gibbous
Jan 15
Full
Jan 24
Last Quarter
Jan 30
New
Feb 6
First Quarter

Hourly Weather History & Observations

Time (EST) Temp. Windchill Dew Point Humidity Pressure Visibility Wind Dir Wind Speed Gust Speed Precip Events Conditions
12:54 AM 19.0 °F 9.0 °F 7.0 °F 59% 30.60 in - SSW 8.1 mph - N/A   Unknown
1:54 AM 18.0 °F 6.1 °F 8.1 °F 65% 30.61 in - South 10.4 mph - N/A   Unknown
2:54 AM 19.9 °F 7.9 °F 9.0 °F 62% 30.59 in - South 11.5 mph - N/A   Unknown
3:54 AM 21.0 °F 8.1 °F 9.0 °F 60% 30.58 in - SSW 13.8 mph - N/A   Unknown
4:54 AM 21.9 °F 9.2 °F 8.1 °F 55% 30.56 in - SSW 13.8 mph - N/A   Unknown
5:54 AM 23.0 °F 11.1 °F 9.0 °F 55% 30.55 in - SSW 12.7 mph - N/A   Unknown
6:54 AM 23.0 °F 11.1 °F 10.9 °F 60% 30.53 in - South 12.7 mph - N/A   Unknown
7:54 AM 21.0 °F 9.3 °F 19.0 °F 92% 30.52 in - South 11.5 mph - 0.02 in   Unknown
8:54 AM 23.0 °F 12.4 °F 21.9 °F 96% 30.52 in - SSW 10.4 mph - 0.01 in   Unknown
9:54 AM 24.1 °F 13.1 °F 21.9 °F 91% 30.51 in - South 11.5 mph - N/A   Unknown
10:54 AM 26.1 °F 15.0 °F 25.0 °F 96% 30.50 in - SSW 12.7 mph - N/A   Unknown
11:54 AM 28.0 °F 18.6 °F 28.0 °F 100% 30.45 in - SSW 10.4 mph - N/A   Unknown
12:54 PM 28.9 °F 19.8 °F 28.9 °F 100% 30.43 in - SSW 10.4 mph - N/A   Unknown
1:54 PM 30.9 °F 22.2 °F 30.0 °F 96% 30.41 in - South 10.4 mph - 0.02 in   Unknown
2:54 PM 33.1 °F 24.4 °F 32.0 °F 96% 30.40 in - SSW 11.5 mph - N/A   Unknown
3:54 PM 33.1 °F 23.9 °F 32.0 °F 96% 30.39 in - South 12.7 mph - N/A   Unknown
4:54 PM 33.1 °F 24.4 °F 32.0 °F 96% 30.38 in - SSW 11.5 mph - N/A   Unknown
5:54 PM 34.0 °F 25.0 °F 33.1 °F 96% 30.38 in - SW 12.7 mph - N/A   Unknown
6:54 PM 33.1 °F 24.4 °F 33.1 °F 100% 30.39 in - SSW 11.5 mph - N/A   Unknown
7:54 PM 35.1 °F 25.9 °F 35.1 °F 100% 30.37 in - SSW 13.8 mph - N/A   Unknown
8:54 PM 35.1 °F 27.4 °F 35.1 °F 100% 30.37 in - SSW 10.4 mph - N/A   Unknown
9:54 PM 35.1 °F 27.4 °F 34.0 °F 96% 30.34 in - South 10.4 mph - N/A   Unknown
10:54 PM 36.0 °F 28.0 °F 36.0 °F 100% 30.31 in - South 11.5 mph - N/A   Unknown
11:54 PM 37.0 °F 31.0 °F 37.0 °F 100% 30.29 in - South 8.1 mph - N/A   Unknown